Time,TemperatureF,DewpointF,PressureIn,WindDirection,WindDirectionDegrees,WindSpeedMPH,WindSpeedGustMPH,Humidity,HourlyPrecipIn,Conditions,Clouds,dailyrainin,SoftwareType,DateUTC
2013-03-10 00:03:00,26.4,25.9,30.34,South,180,0.0,2.0,98,0.00,,,0.00,VWS V14.00,2013-03-10 05:03:00,
2013-03-10 00:08:00,26.7,26.2,30.34,South,180,0.0,1.0,98,0.00,,,0.00,VWS V14.00,2013-03-10 05:08:00,
2013-03-10 00:13:00,26.8,26.3,30.35,South,180,0.0,1.0,98,0.00,,,0.00,VWS V14.00,2013-03-10 05:13:00,
2013-03-10 00:18:00,27.0,26.3,30.35,South,180,0.0,1.0,97,0.00,,,0.00,VWS V14.00,2013-03-10 05:18:00,
2013-03-10 00:23:00,27.0,26.3,30.35,South,180,0.0,1.0,97,0.00,,,0.00,VWS V14.00,2013-03-10 05:23:00,
2013-03-10 00:28:00,27.0,26.3,30.35,South,180,0.0,1.0,97,0.00,,,0.00,VWS V14.00,2013-03-10 05:28:00,
2013-03-10 00:33:00,27.0,26.5,30.35,South,180,0.0,1.0,98,0.00,,,0.00,VWS V14.00,2013-03-10 05:33:00,
2013-03-10 00:38:00,26.8,26.3,30.36,South,180,0.0,1.0,98,0.00,,,0.00,VWS V14.00,2013-03-10 05:38:00,
2013-03-10 00:43:00,26.8,26.3,30.36,South,180,0.0,1.0,98,0.00,,,0.00,VWS V14.00,2013-03-10 05:43:00,
2013-03-10 00:48:00,27.0,26.5,30.36,South,180,0.0,2.0,98,0.00,,,0.00,VWS V14.00,2013-03-10 05:48:00,
2013-03-10 00:53:00,26.8,26.3,30.35,South,180,0.0,2.0,98,0.00,,,0.00,VWS V14.00,2013-03-10 05:53:00,
2013-03-10 00:58:00,27.0,26.8,30.36,South,179,0.0,3.0,99,0.00,,,0.00,VWS V14.00,2013-03-10 05:58:00,
2013-03-10 00:59:00,26.7,26.5,30.35,South,179,0.0,3.0,99,0.00,,CLR,0.00,VWS V14.00,2013-03-10 05:59:00,
2013-03-10 01:03:00,27.0,26.5,30.36,South,179,0.0,0.0,98,0.00,,CLR,0.00,VWS V14.00,2013-03-10 06:03:00,
2013-03-10 01:08:00,27.0,26.5,30.36,South,179,0.0,0.0,98,0.00,,CLR,0.00,VWS V14.00,2013-03-10 06:08:00,
2013-03-10 01:13:00,27.0,26.5,30.36,South,179,0.0,0.0,98,0.00,,CLR,0.00,VWS V14.00,2013-03-10 06:13:00,
2013-03-10 01:18:00,27.0,26.5,30.36,South,179,0.0,0.0,98,0.00,,CLR,0.00,VWS V14.00,2013-03-10 06:18:00,
2013-03-10 01:23:00,26.8,26.6,30.36,South,179,0.0,0.0,99,0.00,,CLR,0.00,VWS V14.00,2013-03-10 06:23:00,
2013-03-10 01:28:00,26.9,26.7,30.36,South,179,0.0,0.0,99,0.00,,CLR,0.00,VWS V14.00,2013-03-10 06:28:00,
2013-03-10 01:33:00,26.8,26.6,30.36,South,179,0.0,1.0,99,0.00,,CLR,0.00,VWS V14.00,2013-03-10 06:33:00,
2013-03-10 01:38:00,26.7,26.2,30.36,South,179,0.0,2.0,98,0.00,,CLR,0.00,VWS V14.00,2013-03-10 06:38:00,
2013-03-10 01:43:00,26.5,26.0,30.35,South,179,0.0,2.0,98,0.00,,CLR,0.00,VWS V14.00,2013-03-10 06:43:00,
2013-03-10 01:48:00,26.6,26.4,30.35,South,179,0.0,3.0,99,0.00,,CLR,0.00,VWS V14.00,2013-03-10 06:48:00,
2013-03-10 01:53:00,26.5,26.3,30.36,South,179,0.0,3.0,99,0.00,,CLR,0.00,VWS V14.00,2013-03-10 06:53:00,
2013-03-10 01:58:00,26.7,26.5,30.35,South,179,0.0,3.0,99,0.00,,CLR,0.00,VWS V14.00,2013-03-10 06:58:00,
2013-03-10 03:03:00,26.8,26.6,30.36,South,179,1.0,2.0,99,0.00,,,0.00,VWS V14.00,2013-03-10 07:03:00,
2013-03-10 03:08:00,26.8,26.6,30.36,South,179,0.0,2.0,99,0.00,,,0.00,VWS V14.00,2013-03-10 07:08:00,
2013-03-10 03:13:00,27.0,26.8,30.36,South,179,1.0,2.0,99,0.00,,,0.00,VWS V14.00,2013-03-10 07:13:00,
2013-03-10 03:18:00,26.8,26.6,30.36,South,179,0.0,2.0,99,0.00,,,0.00,VWS V14.00,2013-03-10 07:18:00,
2013-03-10 03:23:00,26.8,26.6,30.35,South,179,0.0,3.0,99,0.00,,,0.00,VWS V14.00,2013-03-10 07:23:00,
2013-03-10 03:28:00,26.8,26.6,30.35,South,179,0.0,3.0,99,0.00,,,0.00,VWS V14.00,2013-03-10 07:28:00,
2013-03-10 03:33:00,26.7,26.5,30.35,South,179,2.0,2.0,99,0.00,,,0.00,VWS V14.00,2013-03-10 07:33:00,
2013-03-10 03:38:00,26.6,26.4,30.35,South,179,0.0,2.0,99,0.00,,,0.00,VWS V14.00,2013-03-10 07:38:00,
2013-03-10 03:43:00,26.4,26.2,30.35,South,179,0.0,2.0,99,0.00,,,0.00,VWS V14.00,2013-03-10 07:43:00,
2013-03-10 03:48:00,26.3,26.1,30.35,South,179,0.0,2.0,99,0.00,,,0.00,VWS V14.00,2013-03-10 07:48:00,
2013-03-10 03:53:00,26.2,26.0,30.35,South,179,0.0,2.0,99,0.00,,,0.00,VWS V14.00,2013-03-10 07:53:00,
2013-03-10 03:58:00,26.3,26.1,30.35,South,179,0.0,2.0,99,0.00,,,0.00,VWS V14.00,2013-03-10 07:58:00,
2013-03-10 04:03:00,26.3,26.1,30.35,South,179,0.0,0.0,99,0.00,,CLR,0.00,VWS V14.00,2013-03-10 08:03:00,
2013-03-10 04:08:00,26.3,26.1,30.35,South,179,0.0,2.0,99,0.00,,CLR,0.00,VWS V14.00,2013-03-10 08:08:00,
2013-03-10 04:13:00,26.3,26.1,30.36,South,179,0.0,2.0,99,0.00,,CLR,0.00,VWS V14.00,2013-03-10 08:13:00,
2013-03-10 04:18:00,26.1,25.9,30.36,South,179,0.0,2.0,99,0.00,,CLR,0.00,VWS V14.00,2013-03-10 08:18:00,
2013-03-10 04:23:00,26.1,25.9,30.35,South,179,0.0,2.0,99,0.00,,CLR,0.00,VWS V14.00,2013-03-10 08:23:00,
2013-03-10 04:28:00,25.8,25.6,30.35,South,179,0.0,2.0,99,0.00,,CLR,0.00,VWS V14.00,2013-03-10 08:28:00,
2013-03-10 04:33:00,25.7,25.5,30.35,South,179,0.0,0.0,99,0.00,,CLR,0.00,VWS V14.00,2013-03-10 08:33:00,
2013-03-10 04:38:00,25.7,25.5,30.36,South,179,0.0,0.0,99,0.00,,CLR,0.00,VWS V14.00,2013-03-10 08:38:00,
2013-03-10 04:43:00,25.7,25.5,30.36,South,179,0.0,0.0,99,0.00,,CLR,0.00,VWS V14.00,2013-03-10 08:43:00,
2013-03-10 04:48:00,25.8,25.6,30.36,South,179,0.0,1.0,99,0.00,,CLR,0.00,VWS V14.00,2013-03-10 08:48:00,
2013-03-10 04:53:00,25.8,25.6,30.36,South,179,0.0,2.0,99,0.00,,CLR,0.00,VWS V14.00,2013-03-10 08:53:00,
2013-03-10 04:58:00,25.8,25.6,30.36,South,179,0.0,2.0,99,0.00,,CLR,0.00,VWS V14.00,2013-03-10 08:58:00,
2013-03-10 05:03:00,25.6,25.4,30.36,South,179,0.0,2.0,99,0.00,,,0.00,VWS V14.00,2013-03-10 09:03:00,
2013-03-10 05:08:00,25.7,25.5,30.36,South,179,0.0,2.0,99,0.00,,,0.00,VWS V14.00,2013-03-10 09:08:00,
2013-03-10 05:13:00,25.5,25.3,30.36,South,179,0.0,2.0,99,0.00,,,0.00,VWS V14.00,2013-03-10 09:13:00,
2013-03-10 05:18:00,25.5,25.3,30.36,South,179,0.0,2.0,99,0.00,,,0.00,VWS V14.00,2013-03-10 09:18:00,
2013-03-10 05:23:00,25.5,25.3,30.36,South,179,0.0,2.0,99,0.00,,,0.00,VWS V14.00,2013-03-10 09:23:00,
2013-03-10 05:28:00,25.5,25.3,30.36,South,179,0.0,2.0,99,0.00,,,0.00,VWS V14.00,2013-03-10 09:28:00,
2013-03-10 05:33:00,25.5,25.0,30.36,South,179,0.0,0.0,98,0.00,,,0.00,VWS V14.00,2013-03-10 09:33:00,
2013-03-10 05:38:00,25.5,25.3,30.36,South,179,0.0,0.0,99,0.00,,,0.00,VWS V14.00,2013-03-10 09:38:00,
2013-03-10 05:43:00,25.5,25.0,30.36,South,179,0.0,0.0,98,0.00,,,0.00,VWS V14.00,2013-03-10 09:43:00,
2013-03-10 05:48:00,25.4,25.2,30.37,South,179,0.0,0.0,99,0.00,,,0.00,VWS V14.00,2013-03-10 09:48:00,
2013-03-10 05:53:00,25.2,24.7,30.36,South,179,0.0,0.0,98,0.00,,,0.00,VWS V14.00,2013-03-10 09:53:00,
2013-03-10 05:58:00,24.9,24.4,30.36,South,179,0.0,2.0,98,0.00,,,0.00,VWS V14.00,2013-03-10 09:58:00,
2013-03-10 06:03:00,24.7,24.5,30.36,South,179,0.0,0.0,99,0.00,,,0.00,VWS V14.00,2013-03-10 10:03:00,
2013-03-10 06:08:00,24.8,24.3,30.36,South,179,1.0,1.0,98,0.00,,,0.00,VWS V14.00,2013-03-10 10:08:00,
2013-03-10 06:13:00,24.8,24.6,30.36,South,179,1.0,2.0,99,0.00,,,0.00,VWS V14.00,2013-03-10 10:13:00,
2013-03-10 06:18:00,24.6,24.4,30.36,South,179,0.0,2.0,99,0.00,,,0.00,VWS V14.00,2013-03-10 10:18:00,
2013-03-10 06:23:00,24.7,24.5,30.36,South,179,1.0,2.0,99,0.00,,,0.00,VWS V14.00,2013-03-10 10:23:00,
2013-03-10 06:28:00,24.9,24.7,30.36,South,179,0.0,2.0,99,0.00,,,0.00,VWS V14.00,2013-03-10 10:28:00,
2013-03-10 06:33:00,24.9,24.7,30.36,South,179,0.0,1.0,99,0.00,,,0.00,VWS V14.00,2013-03-10 10:33:00,
2013-03-10 06:38:00,24.9,24.4,30.36,South,179,0.0,1.0,98,0.00,,,0.00,VWS V14.00,2013-03-10 10:38:00,
2013-03-10 06:43:00,24.9,24.7,30.36,South,179,0.0,1.0,99,0.00,,,0.00,VWS V14.00,2013-03-10 10:43:00,
2013-03-10 06:48:00,24.7,24.5,30.37,South,179,0.0,1.0,99,0.00,,,0.00,VWS V14.00,2013-03-10 10:48:00,
2013-03-10 06:53:00,24.6,24.4,30.36,South,179,0.0,1.0,99,0.00,,,0.00,VWS V14.00,2013-03-10 10:53:00,
2013-03-10 06:58:00,24.5,24.3,30.36,South,179,0.0,1.0,99,0.00,,,0.00,VWS V14.00,2013-03-10 10:58:00,
2013-03-10 07:03:00,24.5,24.3,30.36,South,179,0.0,0.0,99,0.00,,CLR,0.00,VWS V14.00,2013-03-10 11:03:00,
2013-03-10 07:08:00,24.3,24.1,30.36,South,179,0.0,0.0,99,0.00,,CLR,0.00,VWS V14.00,2013-03-10 11:08:00,
2013-03-10 07:13:00,24.3,24.1,30.37,South,179,0.0,0.0,99,0.00,,CLR,0.00,VWS V14.00,2013-03-10 11:13:00,
2013-03-10 07:18:00,24.2,24.0,30.37,South,179,0.0,1.0,99,0.00,,CLR,0.00,VWS V14.00,2013-03-10 11:18:00,
2013-03-10 07:23:00,24.1,23.9,30.37,South,179,0.0,1.0,99,0.00,,CLR,0.00,VWS V14.00,2013-03-10 11:23:00,
2013-03-10 07:28:00,24.2,24.0,30.38,South,179,0.0,1.0,99,0.00,,CLR,0.00,VWS V14.00,2013-03-10 11:28:00,
2013-03-10 07:33:00,24.3,24.1,30.38,South,179,0.0,0.0,99,0.00,,CLR,0.00,VWS V14.00,2013-03-10 11:33:00,
2013-03-10 07:38:00,24.3,24.1,30.38,South,179,0.0,0.0,99,0.00,,CLR,0.00,VWS V14.00,2013-03-10 11:38:00,
2013-03-10 07:43:00,24.3,24.1,30.38,South,179,0.0,0.0,99,0.00,,CLR,0.00,VWS V14.00,2013-03-10 11:43:00,
2013-03-10 07:48:00,24.5,24.3,30.38,South,179,0.0,1.0,99,0.00,,CLR,0.00,VWS V14.00,2013-03-10 11:48:00,
2013-03-10 07:53:00,24.6,24.4,30.39,South,179,1.0,1.0,99,0.00,,CLR,0.00,VWS V14.00,2013-03-10 11:53:00,
2013-03-10 07:58:00,24.9,24.7,30.39,South,178,0.0,3.0,99,0.00,,CLR,0.00,VWS V14.00,2013-03-10 11:58:00,
2013-03-10 08:03:00,25.1,24.9,30.39,South,178,0.0,1.0,99,0.00,,,0.00,VWS V14.00,2013-03-10 12:03:00,
2013-03-10 08:08:00,25.2,25.0,30.39,South,178,0.0,1.0,99,0.00,,,0.00,VWS V14.00,2013-03-10 12:08:00,
2013-03-10 08:13:00,25.5,25.3,30.39,South,178,0.0,2.0,99,0.00,,,0.00,VWS V14.00,2013-03-10 12:13:00,
2013-03-10 08:18:00,25.9,25.7,30.39,South,178,1.0,3.0,99,0.00,,,0.00,VWS V14.00,2013-03-10 12:18:00,
2013-03-10 08:23:00,26.1,26.1,30.39,South,178,0.0,3.0,100,0.00,,,0.00,VWS V14.00,2013-03-10 12:23:00,
2013-03-10 08:28:00,26.2,26.0,30.39,South,178,0.0,3.0,99,0.00,,,0.00,VWS V14.00,2013-03-10 12:28:00,
2013-03-10 08:33:00,26.6,26.6,30.40,South,178,1.0,2.0,100,0.00,,,0.00,VWS V14.00,2013-03-10 12:33:00,
2013-03-10 08:38:00,26.6,26.4,30.39,South,178,1.0,2.0,99,0.00,,,0.00,VWS V14.00,2013-03-10 12:38:00,
2013-03-10 08:43:00,26.4,26.2,30.39,South,178,0.0,2.0,99,0.00,,,0.00,VWS V14.00,2013-03-10 12:43:00,
2013-03-10 08:48:00,26.8,26.6,30.39,South,178,1.0,3.0,99,0.00,,,0.00,VWS V14.00,2013-03-10 12:48:00,
2013-03-10 08:53:00,27.1,26.9,30.39,South,178,0.0,3.0,99,0.00,,,0.00,VWS V14.00,2013-03-10 12:53:00,
2013-03-10 08:58:00,27.4,27.2,30.40,South,178,1.0,4.0,99,0.00,,,0.00,VWS V14.00,2013-03-10 12:58:00,
2013-03-10 09:03:00,27.6,27.6,30.40,South,178,0.0,4.0,100,0.00,,FEW018,0.00,VWS V14.00,2013-03-10 13:03:00,
2013-03-10 09:08:00,28.2,28.2,30.40,South,177,2.0,4.0,100,0.00,,FEW018,0.00,VWS V14.00,2013-03-10 13:08:00,
2013-03-10 09:13:00,28.6,28.6,30.40,South,177,1.0,4.0,100,0.00,,FEW018,0.00,VWS V14.00,2013-03-10 13:13:00,
2013-03-10 09:18:00,28.8,28.8,30.40,SSE,159,0.0,5.0,100,0.00,,FEW018,0.00,VWS V14.00,2013-03-10 13:18:00,
2013-03-10 09:23:00,29.2,29.2,30.40,SSE,159,1.0,5.0,100,0.00,,FEW018,0.00,VWS V14.00,2013-03-10 13:23:00,
2013-03-10 09:28:00,29.8,29.8,30.40,SE,131,2.0,5.0,100,0.00,,FEW018,0.00,VWS V14.00,2013-03-10 13:28:00,
2013-03-10 09:33:00,30.3,30.3,30.40,East,86,1.0,4.0,100,0.00,,FEW018,0.00,VWS V14.00,2013-03-10 13:33:00,
2013-03-10 09:38:00,30.5,30.5,30.40,NE,44,2.0,5.0,100,0.00,,FEW018,0.00,VWS V14.00,2013-03-10 13:38:00,
2013-03-10 09:43:00,31.0,31.0,30.40,NE,43,0.0,5.0,100,0.00,,FEW018,0.00,VWS V14.00,2013-03-10 13:43:00,
2013-03-10 09:48:00,31.6,31.6,30.40,NE,43,0.0,5.0,100,0.00,,FEW018,0.00,VWS V14.00,2013-03-10 13:48:00,
2013-03-10 09:53:00,32.0,32.0,30.40,NE,43,0.0,5.0,100,0.00,,FEW018,0.00,VWS V14.00,2013-03-10 13:53:00,
2013-03-10 09:58:00,32.7,32.5,30.40,NNE,32,3.0,5.0,99,0.00,,FEW018,0.00,VWS V14.00,2013-03-10 13:58:00,
2013-03-10 10:03:00,33.3,33.0,30.40,NNE,26,3.0,5.0,99,0.00,,BKN020,0.00,VWS V14.00,2013-03-10 14:03:00,
2013-03-10 10:08:00,34.1,33.8,30.40,NNE,26,1.0,5.0,99,0.00,,BKN020,0.00,VWS V14.00,2013-03-10 14:08:00,
2013-03-10 10:13:00,34.1,33.3,30.40,NNE,26,3.0,5.0,97,0.00,,BKN020,0.00,VWS V14.00,2013-03-10 14:13:00,
2013-03-10 10:18:00,34.1,32.8,30.40,NNE,26,2.0,5.0,95,0.00,,BKN020,0.00,VWS V14.00,2013-03-10 14:18:00,
2013-03-10 10:23:00,34.1,32.8,30.40,ENE,70,1.0,6.0,95,0.00,,BKN020,0.00,VWS V14.00,2013-03-10 14:23:00,
2013-03-10 10:28:00,34.4,33.1,30.40,ENE,70,1.0,6.0,95,0.00,,BKN020,0.00,VWS V14.00,2013-03-10 14:28:00,
2013-03-10 10:33:00,34.8,33.2,30.40,NE,47,1.0,6.0,94,0.00,,BKN020,0.00,VWS V14.00,2013-03-10 14:33:00,
2013-03-10 10:38:00,35.0,32.9,30.40,NE,34,3.0,6.0,92,0.00,,BKN020,0.00,VWS V14.00,2013-03-10 14:38:00,
2013-03-10 10:43:00,35.1,32.7,30.40,NE,42,3.0,6.0,91,0.00,,BKN020,0.00,VWS V14.00,2013-03-10 14:43:00,
2013-03-10 10:48:00,35.4,32.8,30.40,NE,34,1.0,6.0,90,0.00,,BKN020,0.00,VWS V14.00,2013-03-10 14:48:00,
2013-03-10 10:53:00,35.8,32.9,30.40,NE,34,4.0,7.0,89,0.00,,BKN020,0.00,VWS V14.00,2013-03-10 14:53:00,
2013-03-10 10:58:00,36.3,32.8,30.39,NE,34,1.0,7.0,87,0.00,,BKN020,0.00,VWS V14.00,2013-03-10 14:58:00,
2013-03-10 11:03:00,36.4,32.6,30.40,NE,34,2.0,5.0,86,0.00,,BKN020,0.00,VWS V14.00,2013-03-10 15:03:00,
2013-03-10 11:08:00,36.5,32.7,30.40,NE,34,2.0,5.0,86,0.00,,BKN020,0.00,VWS V14.00,2013-03-10 15:08:00,
2013-03-10 11:13:00,36.7,32.6,30.40,NE,35,3.0,5.0,85,0.00,,BKN020,0.00,VWS V14.00,2013-03-10 15:13:00,
2013-03-10 11:18:00,36.7,32.0,30.40,NE,34,4.0,5.0,83,0.00,,BKN020,0.00,VWS V14.00,2013-03-10 15:18:00,
2013-03-10 11:23:00,36.5,31.8,30.40,NNE,32,2.0,6.0,83,0.00,,BKN020,0.00,VWS V14.00,2013-03-10 15:23:00,
2013-03-10 11:28:00,36.7,31.7,30.40,NE,34,2.0,6.0,82,0.00,,BKN020,0.00,VWS V14.00,2013-03-10 15:28:00,
2013-03-10 11:33:00,37.0,32.3,30.39,NNE,20,1.0,5.0,83,0.00,,BKN020,0.00,VWS V14.00,2013-03-10 15:33:00,
2013-03-10 11:38:00,37.5,32.2,30.39,East,97,7.0,7.0,81,0.00,,BKN020,0.00,VWS V14.00,2013-03-10 15:38:00,
2013-03-10 11:43:00,37.7,32.1,30.39,ESE,115,4.0,7.0,80,0.00,,BKN020,0.00,VWS V14.00,2013-03-10 15:43:00,
2013-03-10 11:48:00,37.8,32.2,30.39,ESE,115,2.0,7.0,80,0.00,,BKN020,0.00,VWS V14.00,2013-03-10 15:48:00,
2013-03-10 11:53:00,37.7,31.5,30.38,NNE,32,2.0,7.0,78,0.00,,BKN020,0.00,VWS V14.00,2013-03-10 15:53:00,
2013-03-10 11:58:00,37.8,31.6,30.38,North,9,5.0,7.0,78,0.00,,BKN020,0.00,VWS V14.00,2013-03-10 15:58:00,
2013-03-10 12:03:00,37.8,31.6,30.38,NNE,22,2.0,6.0,78,0.00,,BKN022,0.00,VWS V14.00,2013-03-10 16:03:00,
2013-03-10 12:08:00,38.1,31.9,30.38,NNE,25,2.0,8.0,78,0.00,,BKN022,0.00,VWS V14.00,2013-03-10 16:08:00,
2013-03-10 12:13:00,38.5,31.9,30.38,ENE,72,1.0,8.0,77,0.00,,BKN022,0.00,VWS V14.00,2013-03-10 16:13:00,
2013-03-10 12:18:00,39.0,32.4,30.38,ENE,72,3.0,8.0,77,0.00,,BKN022,0.00,VWS V14.00,2013-03-10 16:18:00,
2013-03-10 12:23:00,39.0,31.8,30.38,NE,52,4.0,8.0,75,0.00,,BKN022,0.00,VWS V14.00,2013-03-10 16:23:00,
2013-03-10 12:28:00,39.0,31.8,30.38,NE,52,2.0,8.0,75,0.00,,BKN022,0.00,VWS V14.00,2013-03-10 16:28:00,
2013-03-10 12:33:00,39.4,32.2,30.37,NE,54,1.0,5.0,75,0.00,,BKN022,0.00,VWS V14.00,2013-03-10 16:33:00,
2013-03-10 12:38:00,39.7,32.1,30.37,ENE,66,2.0,6.0,74,0.00,,BKN022,0.00,VWS V14.00,2013-03-10 16:38:00,
2013-03-10 12:43:00,39.8,32.2,30.37,ENE,66,2.0,6.0,74,0.00,,BKN022,0.00,VWS V14.00,2013-03-10 16:43:00,
2013-03-10 12:48:00,39.8,32.2,30.37,ENE,74,4.0,7.0,74,0.00,,BKN022,0.00,VWS V14.00,2013-03-10 16:48:00,
2013-03-10 12:53:00,39.8,31.9,30.37,ESE,103,5.0,7.0,73,0.00,,BKN022,0.00,VWS V14.00,2013-03-10 16:53:00,
2013-03-10 12:58:00,39.7,31.8,30.37,NNE,21,4.0,7.0,73,0.00,,BKN022,0.00,VWS V14.00,2013-03-10 16:58:00,
2013-03-10 13:03:00,40.1,32.5,30.36,East,92,1.0,4.0,74,0.00,,SCT022,0.00,VWS V14.00,2013-03-10 17:03:00,
2013-03-10 13:08:00,40.7,32.7,30.37,East,98,2.0,5.0,73,0.00,,SCT022,0.00,VWS V14.00,2013-03-10 17:08:00,
2013-03-10 13:13:00,41.0,32.7,30.36,SSW,209,4.0,7.0,72,0.00,,SCT022,0.00,VWS V14.00,2013-03-10 17:13:00,
2013-03-10 13:18:00,40.7,32.4,30.36,SSW,199,3.0,7.0,72,0.00,,SCT022,0.00,VWS V14.00,2013-03-10 17:18:00,
2013-03-10 13:23:00,40.7,32.4,30.36,SE,136,4.0,7.0,72,0.00,,SCT022,0.00,VWS V14.00,2013-03-10 17:23:00,
2013-03-10 13:28:00,40.7,32.4,30.36,SSW,213,2.0,7.0,72,0.00,,SCT022,0.00,VWS V14.00,2013-03-10 17:28:00,
2013-03-10 13:33:00,40.8,32.8,30.36,SSE,150,5.0,7.0,73,0.00,,SCT022,0.00,VWS V14.00,2013-03-10 17:33:00,
2013-03-10 13:38:00,41.1,33.1,30.36,South,182,2.0,7.0,73,0.00,,SCT022,0.00,VWS V14.00,2013-03-10 17:38:00,
2013-03-10 13:43:00,41.4,33.1,30.36,South,182,0.0,7.0,72,0.00,,SCT022,0.00,VWS V14.00,2013-03-10 17:43:00,
2013-03-10 13:48:00,41.7,33.3,30.36,SSW,192,1.0,7.0,72,0.00,,SCT022,0.00,VWS V14.00,2013-03-10 17:48:00,
2013-03-10 13:53:00,42.0,33.3,30.36,SE,134,1.0,7.0,71,0.00,,SCT022,0.00,VWS V14.00,2013-03-10 17:53:00,
2013-03-10 13:58:00,42.0,33.3,30.35,SE,137,1.0,7.0,71,0.01,,SCT022,0.01,VWS V14.00,2013-03-10 17:58:00,
2013-03-10 14:04:00,42.0,33.3,30.35,East,97,4.0,5.0,71,0.01,,CLR,0.01,VWS V14.00,2013-03-10 18:04:00,
2013-03-10 14:09:00,42.1,33.0,30.35,SE,127,4.0,5.0,70,0.01,,CLR,0.01,VWS V14.00,2013-03-10 18:09:00,
2013-03-10 14:14:00,42.1,33.0,30.35,SSE,163,2.0,5.0,70,0.01,,CLR,0.01,VWS V14.00,2013-03-10 18:14:00,
2013-03-10 14:19:00,42.1,33.0,30.35,SSE,161,2.0,5.0,70,0.01,,CLR,0.01,VWS V14.00,2013-03-10 18:19:00,
2013-03-10 14:24:00,42.0,32.9,30.35,SSE,161,3.0,5.0,70,0.01,,CLR,0.01,VWS V14.00,2013-03-10 18:24:00,
2013-03-10 14:29:00,41.8,32.8,30.35,SSE,161,3.0,5.0,70,0.01,,CLR,0.01,VWS V14.00,2013-03-10 18:29:00,
2013-03-10 14:34:00,41.7,32.7,30.34,SSE,150,2.0,6.0,70,0.01,,CLR,0.01,VWS V14.00,2013-03-10 18:34:00,
2013-03-10 14:39:00,41.7,32.7,30.34,SSE,147,3.0,6.0,70,0.00,,CLR,0.01,VWS V14.00,2013-03-10 18:39:00,
2013-03-10 14:44:00,41.5,32.8,30.34,SE,128,2.0,6.0,71,0.00,,CLR,0.01,VWS V14.00,2013-03-10 18:44:00,
2013-03-10 14:49:00,41.8,33.1,30.34,South,182,5.0,6.0,71,0.00,,CLR,0.01,VWS V14.00,2013-03-10 18:49:00,
2013-03-10 14:54:00,42.0,32.9,30.34,SSE,157,3.0,7.0,70,0.00,,CLR,0.01,VWS V14.00,2013-03-10 18:54:00,
2013-03-10 14:59:00,42.1,33.0,30.33,SE,133,2.0,7.0,70,0.00,,CLR,0.01,VWS V14.00,2013-03-10 18:59:00,
2013-03-10 15:04:00,42.0,32.9,30.33,ESE,113,3.0,5.0,70,0.00,,CLR,0.01,VWS V14.00,2013-03-10 19:04:00,
2013-03-10 15:09:00,41.7,32.7,30.33,ENE,75,2.0,6.0,70,0.00,,CLR,0.01,VWS V14.00,2013-03-10 19:09:00,
2013-03-10 15:14:00,41.7,32.7,30.34,East,87,2.0,6.0,70,0.00,,CLR,0.01,VWS V14.00,2013-03-10 19:14:00,
2013-03-10 15:19:00,41.8,32.8,30.33,East,91,2.0,6.0,70,0.00,,CLR,0.01,VWS V14.00,2013-03-10 19:19:00,
2013-03-10 15:24:00,41.9,32.8,30.33,East,91,1.0,6.0,70,0.00,,CLR,0.01,VWS V14.00,2013-03-10 19:24:00,
2013-03-10 15:29:00,41.8,32.8,30.33,East,98,2.0,6.0,70,0.00,,CLR,0.01,VWS V14.00,2013-03-10 19:29:00,
2013-03-10 15:34:00,42.0,32.9,30.33,East,99,4.0,5.0,70,0.00,,CLR,0.01,VWS V14.00,2013-03-10 19:34:00,
2013-03-10 15:39:00,42.1,32.3,30.33,ENE,77,4.0,5.0,68,0.00,,CLR,0.01,VWS V14.00,2013-03-10 19:39:00,
2013-03-10 15:44:00,42.0,32.6,30.33,ENE,77,2.0,5.0,69,0.00,,CLR,0.01,VWS V14.00,2013-03-10 19:44:00,
2013-03-10 15:49:00,41.7,32.3,30.33,East,94,2.0,5.0,69,0.00,,CLR,0.01,VWS V14.00,2013-03-10 19:49:00,
2013-03-10 15:54:00,41.8,32.4,30.33,East,94,1.0,5.0,69,0.00,,CLR,0.01,VWS V14.00,2013-03-10 19:54:00,
2013-03-10 15:59:00,42.1,32.7,30.32,East,94,4.0,4.0,69,0.00,,CLR,0.01,VWS V14.00,2013-03-10 19:59:00,
2013-03-10 16:04:00,42.1,32.7,30.33,East,94,1.0,5.0,69,0.00,,CLR,0.01,VWS V14.00,2013-03-10 20:04:00,
2013-03-10 16:09:00,42.0,32.9,30.33,East,94,2.0,5.0,70,0.00,,CLR,0.01,VWS V14.00,2013-03-10 20:09:00,
2013-03-10 16:14:00,41.8,32.4,30.33,East,93,3.0,5.0,69,0.00,,CLR,0.01,VWS V14.00,2013-03-10 20:14:00,
2013-03-10 16:19:00,41.8,32.8,30.33,East,93,1.0,5.0,70,0.00,,CLR,0.01,VWS V14.00,2013-03-10 20:19:00,
2013-03-10 16:24:00,42.1,33.0,30.33,East,93,3.0,5.0,70,0.00,,CLR,0.01,VWS V14.00,2013-03-10 20:24:00,
2013-03-10 16:29:00,42.1,32.7,30.33,East,95,1.0,1.0,69,0.00,,CLR,0.01,VWS V14.00,2013-03-10 20:29:00,
2013-03-10 16:34:00,42.0,32.6,30.33,East,96,1.0,5.0,69,0.00,,CLR,0.01,VWS V14.00,2013-03-10 20:34:00,
2013-03-10 16:39:00,42.0,32.6,30.33,East,96,3.0,5.0,69,0.00,,CLR,0.01,VWS V14.00,2013-03-10 20:39:00,
2013-03-10 16:44:00,41.8,32.8,30.33,East,96,2.0,5.0,70,0.00,,CLR,0.01,VWS V14.00,2013-03-10 20:44:00,
2013-03-10 16:49:00,41.7,32.7,30.33,East,96,2.0,5.0,70,0.00,,CLR,0.01,VWS V14.00,2013-03-10 20:49:00,
2013-03-10 16:54:00,41.7,32.7,30.32,East,96,3.0,5.0,70,0.00,,CLR,0.01,VWS V14.00,2013-03-10 20:54:00,
2013-03-10 16:59:00,41.5,32.5,30.33,SSW,204,4.0,4.0,70,0.00,,CLR,0.01,VWS V14.00,2013-03-10 20:59:00,
2013-03-10 17:04:00,41.3,32.6,30.32,South,190,0.0,6.0,71,0.00,,CLR,0.01,VWS V14.00,2013-03-10 21:04:00,
2013-03-10 17:09:00,41.1,32.4,30.32,South,179,1.0,6.0,71,0.00,,CLR,0.01,VWS V14.00,2013-03-10 21:09:00,
2013-03-10 17:14:00,40.8,32.1,30.32,ENE,70,3.0,6.0,71,0.00,,CLR,0.01,VWS V14.00,2013-03-10 21:14:00,
2013-03-10 17:19:00,40.7,32.4,30.32,ENE,72,2.0,6.0,72,0.00,,CLR,0.01,VWS V14.00,2013-03-10 21:19:00,
2013-03-10 17:24:00,40.5,32.2,30.32,ENE,74,3.0,6.0,72,0.00,,CLR,0.01,VWS V14.00,2013-03-10 21:24:00,
2013-03-10 17:29:00,40.4,32.4,30.32,ENE,74,0.0,2.0,73,0.00,,CLR,0.01,VWS V14.00,2013-03-10 21:29:00,
2013-03-10 17:34:00,40.4,32.4,30.32,ENE,74,2.0,4.0,73,0.00,,CLR,0.01,VWS V14.00,2013-03-10 21:34:00,
2013-03-10 17:39:00,40.3,32.3,30.32,ENE,74,1.0,5.0,73,0.00,,CLR,0.01,VWS V14.00,2013-03-10 21:39:00,
2013-03-10 17:44:00,40.1,32.2,30.32,ENE,74,3.0,5.0,73,0.00,,CLR,0.01,VWS V14.00,2013-03-10 21:44:00,
2013-03-10 17:49:00,39.8,32.2,30.31,ENE,75,2.0,5.0,74,0.00,,CLR,0.01,VWS V14.00,2013-03-10 21:49:00,
2013-03-10 17:54:00,39.7,32.1,30.32,ENE,75,0.0,5.0,74,0.00,,CLR,0.01,VWS V14.00,2013-03-10 21:54:00,
2013-03-10 17:59:00,39.5,32.2,30.32,ENE,75,1.0,3.0,75,0.00,,CLR,0.01,VWS V14.00,2013-03-10 21:59:00,
2013-03-10 18:04:00,39.4,32.2,30.31,ENE,76,1.0,5.0,75,0.00,,FEW019,0.01,VWS V14.00,2013-03-10 22:04:00,
2013-03-10 18:09:00,39.2,32.0,30.31,ENE,76,1.0,5.0,75,0.00,,FEW019,0.01,VWS V14.00,2013-03-10 22:09:00,
2013-03-10 18:14:00,39.1,31.9,30.31,East,79,1.0,6.0,75,0.00,,FEW019,0.01,VWS V14.00,2013-03-10 22:14:00,
2013-03-10 18:19:00,39.0,32.1,30.31,East,79,2.0,6.0,76,0.00,,FEW019,0.01,VWS V14.00,2013-03-10 22:19:00,
2013-03-10 18:24:00,38.7,31.8,30.31,East,80,2.0,6.0,76,0.00,,FEW019,0.01,VWS V14.00,2013-03-10 22:24:00,
2013-03-10 18:29:00,38.5,31.6,30.31,East,80,0.0,2.0,76,0.00,,FEW019,0.01,VWS V14.00,2013-03-10 22:29:00,
2013-03-10 18:34:00,38.4,31.8,30.32,East,81,4.0,4.0,77,0.00,,FEW019,0.01,VWS V14.00,2013-03-10 22:34:00,
2013-03-10 18:39:00,38.1,31.5,30.32,East,82,0.0,5.0,77,0.00,,FEW019,0.01,VWS V14.00,2013-03-10 22:39:00,
2013-03-10 18:44:00,37.8,31.2,30.32,East,82,2.0,5.0,77,0.00,,FEW019,0.01,VWS V14.00,2013-03-10 22:44:00,
2013-03-10 18:49:00,37.5,31.3,30.31,East,82,2.0,5.0,78,0.00,,FEW019,0.01,VWS V14.00,2013-03-10 22:49:00,
2013-03-10 18:54:00,37.3,31.1,30.32,East,82,2.0,5.0,78,0.00,,FEW019,0.01,VWS V14.00,2013-03-10 22:54:00,
2013-03-10 18:59:00,37.0,30.8,30.31,East,82,3.0,3.0,78,0.00,,FEW019,0.01,VWS V14.00,2013-03-10 22:59:00,
2013-03-10 19:04:00,36.7,30.8,30.32,East,83,2.0,4.0,79,0.00,,CLR,0.01,VWS V14.00,2013-03-10 23:04:00,
2013-03-10 19:09:00,36.5,30.6,30.31,East,84,1.0,5.0,79,0.00,,CLR,0.01,VWS V14.00,2013-03-10 23:09:00,
2013-03-10 19:14:00,36.3,30.4,30.32,East,84,1.0,5.0,79,0.00,,CLR,0.01,VWS V14.00,2013-03-10 23:14:00,
2013-03-10 19:19:00,36.1,30.8,30.33,East,84,1.0,5.0,81,0.00,,CLR,0.01,VWS V14.00,2013-03-10 23:19:00,
2013-03-10 19:24:00,36.0,30.8,30.32,East,88,0.0,6.0,81,0.00,,CLR,0.01,VWS V14.00,2013-03-10 23:24:00,
2013-03-10 19:29:00,35.8,30.5,30.32,East,87,1.0,2.0,81,0.00,,CLR,0.01,VWS V14.00,2013-03-10 23:29:00,
2013-03-10 19:34:00,35.8,30.5,30.32,East,88,1.0,4.0,81,0.00,,CLR,0.01,VWS V14.00,2013-03-10 23:34:00,
2013-03-10 19:39:00,35.5,30.6,30.32,East,91,2.0,6.0,82,0.00,,CLR,0.01,VWS V14.00,2013-03-10 23:39:00,
2013-03-10 19:44:00,35.4,30.8,30.32,East,93,1.0,6.0,83,0.00,,CLR,0.01,VWS V14.00,2013-03-10 23:44:00,
2013-03-10 19:49:00,35.3,30.7,30.32,East,97,2.0,6.0,83,0.00,,CLR,0.01,VWS V14.00,2013-03-10 23:49:00,
2013-03-10 19:54:00,35.1,30.5,30.33,East,100,1.0,6.0,83,0.00,,CLR,0.01,VWS V14.00,2013-03-10 23:54:00,
2013-03-10 19:59:00,35.0,30.4,30.32,SE,146,2.0,2.0,83,0.00,,CLR,0.01,VWS V14.00,2013-03-10 23:59:00,
2013-03-10 20:04:00,34.8,30.5,30.32,ESE,112,2.0,4.0,84,0.00,,CLR,0.01,VWS V14.00,2013-03-11 00:04:00,
2013-03-10 20:09:00,34.7,30.4,30.33,ESE,116,1.0,4.0,84,0.00,,CLR,0.01,VWS V14.00,2013-03-11 00:09:00,
2013-03-10 20:14:00,34.5,30.2,30.33,ESE,116,1.0,4.0,84,0.00,,CLR,0.01,VWS V14.00,2013-03-11 00:14:00,
2013-03-10 20:19:00,34.4,30.4,30.33,ESE,116,1.0,4.0,85,0.00,,CLR,0.01,VWS V14.00,2013-03-11 00:19:00,
2013-03-10 20:24:00,34.2,30.5,30.33,ESE,116,0.0,4.0,86,0.00,,CLR,0.01,VWS V14.00,2013-03-11 00:24:00,
2013-03-10 20:29:00,34.1,30.4,30.33,ESE,116,1.0,2.0,86,0.00,,CLR,0.01,VWS V14.00,2013-03-11 00:29:00,
2013-03-10 20:34:00,33.8,30.1,30.33,ESE,116,1.0,3.0,86,0.00,,CLR,0.01,VWS V14.00,2013-03-11 00:34:00,
2013-03-10 20:39:00,33.7,30.2,30.33,ESE,116,1.0,3.0,87,0.00,,CLR,0.01,VWS V14.00,2013-03-11 00:39:00,
2013-03-10 20:44:00,33.5,30.0,30.32,ESE,116,1.0,3.0,87,0.00,,CLR,0.01,VWS V14.00,2013-03-11 00:44:00,
2013-03-10 20:49:00,33.4,30.0,30.33,ESE,116,1.0,3.0,87,0.00,,CLR,0.01,VWS V14.00,2013-03-11 00:49:00,
2013-03-10 20:54:00,33.3,30.1,30.33,ESE,116,1.0,5.0,88,0.00,,CLR,0.01,VWS V14.00,2013-03-11 00:54:00,
2013-03-10 20:59:00,33.3,30.1,30.32,ESE,116,1.0,1.0,88,0.00,,CLR,0.01,VWS V14.00,2013-03-11 00:59:00,
2013-03-10 21:04:00,33.3,30.1,30.32,ESE,116,1.0,3.0,88,0.00,,CLR,0.01,VWS V14.00,2013-03-11 01:04:00,
2013-03-10 21:09:00,33.3,30.1,30.32,ESE,117,2.0,5.0,88,0.00,,CLR,0.01,VWS V14.00,2013-03-11 01:09:00,
2013-03-10 21:14:00,33.3,30.4,30.32,ESE,117,1.0,5.0,89,0.00,,CLR,0.01,VWS V14.00,2013-03-11 01:14:00,
2013-03-10 21:19:00,33.4,30.5,30.31,ESE,117,1.0,5.0,89,0.00,,CLR,0.01,VWS V14.00,2013-03-11 01:19:00,
2013-03-10 21:24:00,33.4,30.5,30.32,ENE,75,1.0,5.0,89,0.00,,CLR,0.01,VWS V14.00,2013-03-11 01:24:00,
2013-03-10 21:29:00,33.4,30.8,30.31,ENE,75,1.0,1.0,90,0.00,,CLR,0.01,VWS V14.00,2013-03-11 01:29:00,
2013-03-10 21:34:00,33.4,30.8,30.32,ENE,77,3.0,4.0,90,0.00,,CLR,0.01,VWS V14.00,2013-03-11 01:34:00,
2013-03-10 21:39:00,33.4,30.8,30.31,East,93,4.0,5.0,90,0.00,,CLR,0.01,VWS V14.00,2013-03-11 01:39:00,
2013-03-10 21:44:00,33.4,30.8,30.31,East,93,3.0,5.0,90,0.00,,CLR,0.01,VWS V14.00,2013-03-11 01:44:00,
2013-03-10 21:49:00,33.5,30.9,30.31,SE,133,6.0,7.0,90,0.00,,CLR,0.01,VWS V14.00,2013-03-11 01:49:00,
2013-03-10 21:54:00,33.5,30.9,30.31,SE,124,1.0,7.0,90,0.00,,CLR,0.01,VWS V14.00,2013-03-11 01:54:00,
2013-03-10 21:59:00,33.5,30.9,30.32,SE,125,1.0,2.0,90,0.00,,CLR,0.01,VWS V14.00,2013-03-11 01:59:00,
2013-03-10 22:04:00,33.5,30.6,30.31,SW,222,1.0,6.0,89,0.00,,CLR,0.01,VWS V14.00,2013-03-11 02:04:00,
2013-03-10 22:09:00,33.5,30.9,30.32,South,173,3.0,6.0,90,0.00,,CLR,0.01,VWS V14.00,2013-03-11 02:09:00,
2013-03-10 22:14:00,33.5,30.9,30.32,South,182,1.0,6.0,90,0.00,,CLR,0.01,VWS V14.00,2013-03-11 02:14:00,
2013-03-10 22:19:00,33.5,30.9,30.31,South,185,1.0,6.0,90,0.00,,CLR,0.01,VWS V14.00,2013-03-11 02:19:00,
2013-03-10 22:24:00,33.4,30.5,30.30,South,173,2.0,6.0,89,0.00,,CLR,0.01,VWS V14.00,2013-03-11 02:24:00,
2013-03-10 22:29:00,33.3,30.7,30.31,SW,225,1.0,4.0,90,0.00,,CLR,0.01,VWS V14.00,2013-03-11 02:29:00,
2013-03-10 22:34:00,33.3,30.7,30.31,SSW,194,2.0,5.0,90,0.00,,CLR,0.01,VWS V14.00,2013-03-11 02:34:00,
2013-03-10 22:39:00,33.3,30.4,30.30,South,184,1.0,5.0,89,0.00,,CLR,0.01,VWS V14.00,2013-03-11 02:39:00,
2013-03-10 22:44:00,33.3,30.7,30.31,South,189,1.0,5.0,90,0.00,,CLR,0.01,VWS V14.00,2013-03-11 02:44:00,
2013-03-10 22:49:00,33.3,30.7,30.32,South,184,4.0,7.0,90,0.00,,CLR,0.01,VWS V14.00,2013-03-11 02:49:00,
2013-03-10 22:54:00,33.3,30.7,30.32,South,180,2.0,7.0,90,0.00,,CLR,0.01,VWS V14.00,2013-03-11 02:54:00,
2013-03-10 22:59:00,33.4,30.8,30.31,South,180,2.0,4.0,90,0.00,,CLR,0.01,VWS V14.00,2013-03-11 02:59:00,
2013-03-10 23:04:00,33.4,30.8,30.31,South,184,1.0,6.0,90,0.00,,CLR,0.01,VWS V14.00,2013-03-11 03:04:00,
2013-03-10 23:09:00,33.3,30.7,30.31,South,184,3.0,6.0,90,0.00,,CLR,0.01,VWS V14.00,2013-03-11 03:09:00,
2013-03-10 23:14:00,33.3,30.7,30.30,South,189,5.0,6.0,90,0.00,,CLR,0.01,VWS V14.00,2013-03-11 03:14:00,
2013-03-10 23:19:00,33.3,30.7,30.30,South,178,1.0,6.0,90,0.00,,CLR,0.01,VWS V14.00,2013-03-11 03:19:00,
2013-03-10 23:24:00,33.2,30.9,30.30,South,178,2.0,6.0,91,0.00,,CLR,0.01,VWS V14.00,2013-03-11 03:24:00,
2013-03-10 23:29:00,33.3,31.0,30.30,South,178,2.0,4.0,91,0.00,,CLR,0.01,VWS V14.00,2013-03-11 03:29:00,
2013-03-10 23:34:00,33.3,31.0,30.30,South,174,2.0,6.0,91,0.00,,CLR,0.01,VWS V14.00,2013-03-11 03:34:00,
2013-03-10 23:39:00,33.3,31.0,30.30,South,174,1.0,6.0,91,0.00,,CLR,0.01,VWS V14.00,2013-03-11 03:39:00,
2013-03-10 23:44:00,33.4,31.3,30.30,South,174,2.0,6.0,92,0.00,,CLR,0.01,VWS V14.00,2013-03-11 03:44:00,
2013-03-10 23:49:00,33.4,31.1,30.29,South,174,3.0,6.0,91,0.00,,CLR,0.01,VWS V14.00,2013-03-11 03:49:00,
2013-03-10 23:54:00,33.4,31.1,30.28,SSW,203,0.0,6.0,91,0.00,,CLR,0.01,VWS V14.00,2013-03-11 03:54:00,